Tracking 28052 objects as of 22-Sep-2023
HD Live streaming from Space Station
objects crossing your sky now

STARLINK-4390

Track STARLINK-4390 now!
10-day predictions


NORAD ID: 53653
Int'l Code: 2022-105F
Perigee: 568.7 km
Apogee: 571.6 km
Inclination: 97.7 °
Period: 95.9 minutes
Semi major axis: 6941 km
RCS: Unknown
Launch date: August 31, 2022
Source: United States (US)
Launch site: AIR FORCE WESTERN TEST RANGE (AFWTR)
Your satellite tracking list
Your tracking list is empty




NASA's NSSDC Master Catalog

Two Line Element Set (TLE):
1 53653U 22105F   23264.91573038  .00009745  00000-0  76204-3 0  9992
2 53653  97.6551 144.5501 0002074  97.1431 263.0029 15.01268642 58230
Source of the keplerian elements: AFSPC